Dublin, Ireland

5:48 PM IST on July 27, 2016 (GMT +0100)
Dublin International

Weather History for EIDW - September, 2013

Change the Weather History Date:

Tuesday, September 24, 2013

  Actual Average Record
Temperature  
Mean Temperature 59 °F -  
Max Temperature 63 °F 58 °F 64 °F (1999)
Min Temperature 55 °F 47 °F 35 °F (2005)
Degree Days  
Heating Degree Days 6    
Growing Degree Days 9 (Base 50)    
Moisture  
Dew Point 56 °F    
Average Humidity 94    
Maximum Humidity 100    
Minimum Humidity 79    
Precipitation  
Precipitation 0.03 in 0.09 in - ()
Sea Level Pressure  
Sea Level Pressure 29.98 in    
Wind  
Wind Speed 8 mph ()    
Max Wind Speed 12 mph    
Max Gust Speed -    
Visibility 2.3 miles    
Events Fog , Rain    
Averages and records for this station are not official NWS values.
T = Trace of Precipitation, MM = Missing Value Source: Averaged Metar Reports

Daily Weather History Graph

Daily Weather History Graph

Search for Another Location

Airport or City:

Trip Planner

Search our weather history database for the weather conditions in past years. The results will help you decide how hot, cold, wet, or windy it might be!

Date:

Astronomy

Sep. 24, 2013 Rise Set
Actual Time 7:14 AM IST 7:18 PM IST
Civil Twilight 6:39 AM IST 7:53 PM IST
Nautical Twilight 5:58 AM IST 8:34 PM IST
Astronomical Twilight 5:15 AM IST 9:17 PM IST
Moon 9:41 PM IST (9/24) 1:00 PM IST (9/24)
Length of Visible Light 13h 13m
Length of Day
12h 04m
Waning Gibbous, 75% of the Moon is Illuminated
Sep 24
Waning Gibbous
Sep 27
Last Quarter
Oct 5
New
Oct 12
First Quarter
Oct 19
Full

Hourly Weather History & Observations

Time (IST) Temp. Dew Point Humidity Pressure Visibility Wind Dir Wind Speed Gust Speed Precip Events Conditions
12:00 AM 57.2 °F 57.2 °F 100% 30.06 in 2.5 mi East 10.4 mph - N/A   Overcast
12:30 AM 57.2 °F 57.2 °F 100% 30.06 in 1.2 mi East 9.2 mph - N/A   Light Drizzle
1:00 AM 57 °F 56 °F 96% 30.08 in 1 mi East 8.9 mph - - Fog Heavy Fog
1:00 AM 57.2 °F 55.4 °F 94% 30.06 in 0.6 mi East 9.2 mph - N/A Fog Fog
1:30 AM 57.2 °F 55.4 °F 94% 30.06 in 0.6 mi East 8.1 mph - N/A Fog Light Fog
2:00 AM 55.4 °F 55.4 °F 100% 30.06 in 0.5 mi East 9.2 mph - N/A Fog Light Fog
2:30 AM 55.4 °F 55.4 °F 100% 30.04 in 0.4 mi East 6.9 mph - N/A Fog Light Fog
3:00 AM 57.2 °F 55.4 °F 94% 30.04 in 0.4 mi East 9.2 mph - N/A Fog Light Fog
3:30 AM 57.2 °F 55.4 °F 94% 30.04 in 0.9 mi ENE 6.9 mph - N/A Fog Patches of Fog
4:00 AM 57.2 °F 55.4 °F 94% 30.01 in 0.6 mi East 6.9 mph - N/A Fog Fog
4:30 AM 57.2 °F 55.4 °F 94% 30.01 in 0.7 mi East 6.9 mph - N/A Fog Patches of Fog
5:00 AM 57.2 °F 55.4 °F 94% 30.01 in 0.9 mi East 8.1 mph - N/A Fog Patches of Fog
5:30 AM 57.2 °F 55.4 °F 94% 30.01 in 0.4 mi East 6.9 mph - N/A Fog Fog
6:00 AM 57.2 °F 55.4 °F 94% 30.01 in 0.4 mi East 9.2 mph - N/A Fog Fog
6:30 AM 57.2 °F 55.4 °F 94% 29.98 in 2.5 mi ESE 4.6 mph - N/A Fog Patches of Fog
7:00 AM 57 °F 56 °F 97% 29.99 in 2 mi SE 6.7 mph - - Fog Light Fog
7:00 AM 57.2 °F 57.2 °F 100% 29.98 in 1.9 mi SE 6.9 mph - N/A   Mostly Cloudy
7:30 AM 55.4 °F 55.4 °F 100% 29.98 in 0.7 mi ESE 8.1 mph - N/A Fog Patches of Fog
8:00 AM 55.4 °F 55.4 °F 100% 29.98 in 0.4 mi SE 8.1 mph - N/A Fog Fog
8:30 AM 57.2 °F 55.4 °F 94% 29.98 in 0.2 mi SE 9.2 mph - N/A Fog Fog
9:00 AM 57.2 °F 57.2 °F 100% 29.98 in 0.2 mi ESE 8.1 mph - N/A Fog Fog
9:30 AM 57.2 °F 57.2 °F 100% 29.98 in 1.9 mi ESE 6.9 mph - N/A   Mostly Cloudy
10:00 AM 57.2 °F 57.2 °F 100% 29.98 in 5.0 mi SE 8.1 mph - N/A   Scattered Clouds
10:30 AM 59.0 °F 57.2 °F 94% 29.98 in 6.2 mi SE 9.2 mph - N/A   Scattered Clouds
11:00 AM 59.0 °F 57.2 °F 94% 29.98 in 6.2 mi SE 8.1 mph - N/A   Mostly Cloudy
11:30 AM 60.8 °F 55.4 °F 82% 29.98 in 6.2 mi SE 9.2 mph - N/A   Mostly Cloudy
12:00 PM 60.8 °F 57.2 °F 88% 29.98 in 6.2 mi ESE 9.2 mph - N/A   Mostly Cloudy
12:30 PM 60.8 °F 55.4 °F 82% 29.98 in 6.2 mi SE 9.2 mph - N/A   Mostly Cloudy
1:00 PM 61 °F 56 °F 79% 29.98 in 6 mi SE 11.2 mph - -   Mist
1:00 PM 60.8 °F 57.2 °F 88% 29.98 in 6.2 mi SE 11.5 mph - N/A   Mostly Cloudy
1:30 PM 60.8 °F 57.2 °F 88% 29.98 in 6.2 mi SE 10.4 mph - N/A   Mostly Cloudy
2:00 PM 62.6 °F 57.2 °F 82% 29.98 in 6.2 mi SE 11.5 mph - N/A   Mostly Cloudy
2:30 PM 62.6 °F 57.2 °F 82% 29.95 in 6.2 mi SE 9.2 mph - N/A   Mostly Cloudy
3:00 PM 60.8 °F 55.4 °F 82% 29.95 in 6.2 mi ESE 10.4 mph - N/A   Mostly Cloudy
3:30 PM 60.8 °F 57.2 °F 88% 29.95 in 6.2 mi East 9.2 mph - N/A   Mostly Cloudy
4:00 PM 59.0 °F 55.4 °F 88% 29.95 in 5.6 mi East 9.2 mph - N/A   Mostly Cloudy
4:30 PM 59.0 °F 55.4 °F 88% 29.92 in 2.5 mi ENE 8.1 mph - N/A   Mostly Cloudy
5:00 PM 57.2 °F 55.4 °F 94% 29.92 in 0.8 mi ENE 9.2 mph - N/A   Overcast
5:30 PM 57.2 °F 55.4 °F 94% 29.92 in 0.7 mi East 9.2 mph - N/A   Mostly Cloudy
6:00 PM 55.4 °F 55.4 °F 100% 29.92 in 0.6 mi East 10.4 mph - N/A Fog Fog
6:30 PM 57.2 °F 55.4 °F 94% 29.95 in 0.8 mi East 9.2 mph - N/A   Mostly Cloudy
7:00 PM 57 °F 55 °F 92% 29.96 in 1 mi ESE 8.9 mph - - Fog Light Fog
7:00 PM 57.2 °F 55.4 °F 94% 29.95 in 0.9 mi ESE 8.1 mph - N/A   Mostly Cloudy
7:30 PM 57.2 °F 55.4 °F 94% 29.95 in 0.9 mi ESE 6.9 mph - N/A   Mostly Cloudy
8:00 PM 57.2 °F 55.4 °F 94% 29.95 in 0.7 mi ESE 6.9 mph - N/A   Mostly Cloudy
8:30 PM 55.4 °F 55.4 °F 100% 29.95 in 0.7 mi East 5.8 mph - N/A   Mostly Cloudy
9:00 PM 55.4 °F 55.4 °F 100% 29.95 in 0.5 mi East 6.9 mph - N/A Fog Fog
9:30 PM 55.4 °F 55.4 °F 100% 29.95 in 0.4 mi East 4.6 mph - N/A Fog Fog
10:00 PM 55.4 °F 55.4 °F 100% 29.95 in 0.4 mi ESE 4.6 mph - N/A Fog , Rain Light Fog
10:30 PM 55.4 °F 55.4 °F 100% 29.95 in 0.2 mi Variable 2.3 mph - N/A Fog , Rain Light Fog
11:00 PM 55.4 °F 55.4 °F 100% 29.92 in 0.3 mi NE 3.5 mph - N/A Fog , Rain Light Fog
11:30 PM 55.4 °F 55.4 °F 100% 29.92 in 0.4 mi Variable 3.5 mph - N/A Fog Fog